Spencer, VA

9:23 AM EST on February 12, 2016 (GMT -0500)
Blue Ridge

Weather History for KMTV - March, 2014

Change the Weather History Date:

Friday, March 21, 2014

  Actual Average (KGSO) Record (KGSO)
Temperature  
Mean Temperature 48 °F 51 °F  
Max Temperature 69 °F 63 °F 89 °F (1968)
Min Temperature 28 °F 40 °F 15 °F (1965)
Degree Days  
Heating Degree Days 16 14  
Month to date heating degree days 348  
Since 1 July heating degree days 3203  
Cooling Degree Days 0 0  
Month to date cooling degree days 0  
Year to date cooling degree days 0  
Moisture  
Dew Point 26 °F    
Average Humidity 43    
Maximum Humidity 90    
Minimum Humidity 19    
Precipitation  
Precipitation 0.00 in 0.12 in 1.71 in (1961)
Month to date precipitation 2.52  
Year to date precipitation 8.54  
Snow  
Snow 0.00 in 0.00 in 2.00 in (1914)
Month to date snowfall 0.7  
Since 1 July snowfall 7.4  
Snow Depth -    
Sea Level Pressure  
Sea Level Pressure 30.09 in    
Wind  
Wind Speed 3 mph (SW)    
Max Wind Speed 13 mph    
Max Gust Speed 20 mph    
Visibility 10 miles    
Events      
T = Trace of Precipitation, MM = Missing Value Source: NWS Daily Summary

Daily Weather History Graph

Daily Weather History Graph

Search for Another Location

Airport or City:

Trip Planner

Search our weather history database for the weather conditions in past years. The results will help you decide how hot, cold, wet, or windy it might be!

Date:

Astronomy

Mar. 21, 2014 Rise Set
Actual Time 7:22 AM EDT 7:32 PM EDT
Civil Twilight 6:56 AM EDT 7:58 PM EDT
Nautical Twilight 6:26 AM EDT 8:28 PM EDT
Astronomical Twilight 5:55 AM EDT 8:59 PM EDT
Moon No Moon Rise 10:19 AM EDT (3/21)
Length of Visible Light 13h 02m
Length of Day
12h 10m
Waning Gibbous, 75% of the Moon is Illuminated
Mar 21
Waning Gibbous
Mar 23
Last Quarter
Mar 30
New
Apr 7
First Quarter
Apr 15
Full

Hourly Weather History & Observations

Time (EDT) Temp. Windchill Dew Point Humidity Pressure Visibility Wind Dir Wind Speed Gust Speed Precip Events Conditions
12:15 AM 41.2 °F - 22.8 °F 48% 30.09 in 10.0 mi Calm Calm - N/A   Clear
12:35 AM 39.7 °F - 24.4 °F 54% 30.09 in 10.0 mi Calm Calm - N/A   Clear
12:55 AM 39.2 °F - 23.5 °F 53% 30.08 in 10.0 mi Calm Calm - N/A   Clear
1:15 AM 37.9 °F - 24.6 °F 59% 30.08 in 10.0 mi Calm Calm - N/A   Clear
1:35 AM 37.9 °F 35.5 °F 24.4 °F 58% 30.08 in 10.0 mi NW 3.5 mph - N/A   Clear
1:55 AM 36.0 °F - 25.0 °F 64% 30.09 in 10.0 mi Calm Calm - N/A   Clear
2:15 AM 33.4 °F - 25.2 °F 72% 30.09 in 10.0 mi Calm Calm - N/A   Clear
2:35 AM 33.1 °F - 24.8 °F 72% 30.09 in 10.0 mi Calm Calm - N/A   Clear
2:55 AM 32.0 °F - 25.2 °F 76% 30.09 in 10.0 mi Calm Calm - N/A   Clear
3:15 AM 31.6 °F - 25.5 °F 78% 30.08 in 10.0 mi Calm Calm - N/A   Clear
3:35 AM 37.8 °F - 23.5 °F 57% 30.08 in 10.0 mi Calm Calm - N/A   Clear
3:55 AM 40.1 °F - 23.0 °F 51% 30.08 in 10.0 mi Calm Calm - N/A   Clear
4:15 AM 43.0 °F 41.3 °F 22.6 °F 45% 30.08 in 10.0 mi West 3.5 mph - N/A   Clear
4:35 AM 38.5 °F 36.1 °F 25.3 °F 59% 30.08 in 10.0 mi West 3.5 mph - N/A   Clear
4:55 AM 30.4 °F - 25.7 °F 83% 30.10 in 10.0 mi Calm Calm - N/A   Clear
5:15 AM 29.7 °F - 25.5 °F 85% 30.10 in 10.0 mi Calm Calm - N/A   Clear
5:35 AM 30.4 °F - 25.5 °F 82% 30.10 in 10.0 mi Calm Calm - N/A   Clear
5:55 AM 29.3 °F - 25.5 °F 86% 30.10 in 10.0 mi Calm Calm - N/A   Clear
6:15 AM 29.1 °F - 25.2 °F 85% 30.11 in 10.0 mi Calm Calm - N/A   Clear
6:35 AM 28.8 °F - 25.3 °F 87% 30.12 in 10.0 mi Calm Calm - N/A   Clear
6:55 AM 29.8 °F - 25.5 °F 84% 30.13 in 10.0 mi Calm Calm - N/A   Clear
7:15 AM 28.2 °F - 25.5 °F 90% 30.13 in 10.0 mi Calm Calm - N/A   Clear
7:35 AM 28.9 °F - 25.3 °F 86% 30.13 in 10.0 mi Calm Calm - N/A   Clear
7:55 AM 29.3 °F - 26.1 °F 88% 30.13 in 10.0 mi Calm Calm - N/A   Clear
8:15 AM 32.0 °F - 26.8 °F 81% 30.14 in 10.0 mi Calm Calm - N/A   Clear
8:35 AM 34.5 °F - 28.0 °F 77% 30.14 in 10.0 mi Calm Calm - N/A   Clear
8:55 AM 41.5 °F 39.6 °F 29.7 °F 63% 30.14 in 10.0 mi West 3.5 mph - N/A   Clear
9:15 AM 49.3 °F - 25.3 °F 39% 30.14 in 10.0 mi West 4.6 mph - N/A   Clear
9:35 AM 52.5 °F - 25.9 °F 36% 30.14 in 10.0 mi Calm Calm - N/A   Clear
9:55 AM 55.0 °F - 24.8 °F 31% 30.14 in 10.0 mi WSW 6.9 mph - N/A   Clear
10:15 AM 57.2 °F - 25.2 °F 29% 30.14 in 10.0 mi SSW 5.8 mph - N/A   Clear
10:35 AM 58.1 °F - 25.3 °F 28% 30.14 in 10.0 mi WSW 4.6 mph - N/A   Clear
10:55 AM 59.7 °F - 26.4 °F 28% 30.15 in 10.0 mi SSW 5.8 mph - N/A   Clear
11:15 AM 60.6 °F - 26.6 °F 27% 30.15 in 10.0 mi SW 5.8 mph - N/A   Clear
11:35 AM 60.8 °F - 26.6 °F 27% 30.15 in 10.0 mi SW 10.4 mph - N/A   Clear
11:55 AM 61.3 °F - 27.7 °F 28% 30.15 in 10.0 mi SW 5.8 mph - N/A   Clear
12:15 PM 62.6 °F - 27.9 °F 27% 30.15 in 10.0 mi SW 6.9 mph - N/A   Clear
12:35 PM 63.1 °F - 27.5 °F 26% 30.14 in 10.0 mi SW 8.1 mph - N/A   Clear
12:55 PM 63.7 °F - 27.9 °F 26% 30.13 in 10.0 mi South 3.5 mph - N/A   Clear
1:15 PM 64.4 °F - 27.5 °F 25% 30.12 in 10.0 mi SW 5.8 mph 18.4 mph N/A   Clear
1:35 PM 65.5 °F - 27.5 °F 24% 30.10 in 10.0 mi WSW 6.9 mph 16.1 mph N/A   Clear
1:55 PM 65.8 °F - 27.5 °F 24% 30.10 in 10.0 mi WSW 8.1 mph - N/A   Clear
2:15 PM 66.2 °F - 25.9 °F 22% 30.09 in 10.0 mi WNW 6.9 mph - N/A   Clear
2:35 PM 67.1 °F - 25.3 °F 21% 30.08 in 10.0 mi WSW 11.5 mph 17.3 mph N/A   Clear
2:55 PM 68.0 °F - 26.8 °F 21% 30.07 in 10.0 mi SW 8.1 mph - N/A   Clear
3:15 PM 68.0 °F - 25.7 °F 20% 30.06 in 10.0 mi West 9.2 mph 17.3 mph N/A   Clear
3:35 PM 68.4 °F - 25.7 °F 20% 30.05 in 10.0 mi SW 8.1 mph 16.1 mph N/A   Clear
3:55 PM 69.4 °F - 26.1 °F 20% 30.05 in 10.0 mi SSW 10.4 mph 18.4 mph N/A   Clear
4:15 PM 68.9 °F - 25.7 °F 20% 30.05 in 10.0 mi WSW 9.2 mph 18.4 mph N/A   Clear
4:35 PM 68.9 °F - 25.9 °F 20% 30.04 in 10.0 mi SW 12.7 mph 19.6 mph N/A   Clear
4:55 PM 69.1 °F - 26.2 °F 20% 30.04 in 10.0 mi SSW 6.9 mph - N/A   Clear
5:15 PM 69.8 °F - 25.7 °F 19% 30.04 in 10.0 mi SW 10.4 mph - N/A   Clear
5:35 PM 68.7 °F - 24.8 °F 19% 30.03 in 10.0 mi SW 10.4 mph 16.1 mph N/A   Clear
5:55 PM 68.0 °F - 24.4 °F 19% 30.03 in 10.0 mi SW 8.1 mph - N/A   Clear
6:15 PM 66.6 °F - 24.8 °F 21% 30.03 in 10.0 mi SW 6.9 mph - N/A   Clear
6:35 PM 66.2 °F - 24.8 °F 21% 30.03 in 10.0 mi WSW 8.1 mph - N/A   Clear
6:55 PM 65.1 °F - 25.2 °F 22% 30.04 in 10.0 mi SSW 4.6 mph - N/A   Clear
7:15 PM 63.5 °F - 24.4 °F 23% 30.04 in 10.0 mi SSW 5.8 mph - N/A   Clear
7:35 PM 61.5 °F - 25.9 °F 26% 30.03 in 10.0 mi SSW 4.6 mph - N/A   Clear
7:55 PM 60.8 °F - 25.7 °F 26% 30.03 in 10.0 mi SSW 4.6 mph - N/A   Clear
8:15 PM 59.9 °F - 25.5 °F 27% 30.03 in 10.0 mi SSW 4.6 mph - N/A   Clear
8:35 PM 59.2 °F - 25.5 °F 28% 30.04 in 10.0 mi SSW 4.6 mph - N/A   Clear
8:55 PM 58.3 °F - 25.5 °F 28% 30.05 in 10.0 mi SSW 4.6 mph - N/A   Clear
9:15 PM 58.1 °F - 26.1 °F 29% 30.05 in 10.0 mi SSW 5.8 mph - N/A   Clear
9:35 PM 57.6 °F - 26.2 °F 30% 30.05 in 10.0 mi SSW 5.8 mph - N/A   Clear
9:55 PM 56.8 °F - 26.8 °F 32% 30.05 in 10.0 mi SSW 5.8 mph - N/A   Clear
10:15 PM 56.5 °F - 27.0 °F 32% 30.05 in 10.0 mi South 5.8 mph - N/A   Clear
10:35 PM 55.9 °F - 27.3 °F 33% 30.06 in 10.0 mi SSW 4.6 mph - N/A   Clear
10:55 PM 55.4 °F - 27.7 °F 35% 30.05 in 10.0 mi Calm Calm - N/A   Clear
11:15 PM 54.7 °F - 28.0 °F 36% 30.05 in 10.0 mi South 3.5 mph - N/A   Clear
11:35 PM 54.7 °F - 28.0 °F 36% 30.05 in 10.0 mi SSW 4.6 mph - N/A   Clear
11:55 PM 54.7 °F - 28.6 °F 37% 30.05 in 10.0 mi SSW 4.6 mph - N/A   Clear